CE-SAT-I

Last updated on Mon Jul 24 2017 00:15:03 GMT+0000 (Coordinated Universal Time)

1 42769U 17036E 17204.56177918 .00000636 00000-0 32976-4 0 9999 2 42769 97.4478 263.9246 0017150 130.5739 229.6991 15.19612538 4545
UTC large
Height (km)
Speed (km/s)
/
Latitude / Longitude
Inclination (degrees)
Orbital Period (minutes)
Azimuth
Elevation
Range (km)
Doppler Factor

Next 0 passes for location: London (51.5072 / 0.1276)

Sorry there are no passes over London.